Weather History for Las Cruces, NM

Change the Weather History Date:

Wednesday, March 5, 2014

  Actual Average Record
Temperature  
Mean Temperature 54 °F -  
Max Temperature 67 °F 61 °F 75 °F (2006)
Min Temperature 40 °F 36 °F 19 °F (2002)
Degree Days  
Heating Degree Days 12    
Growing Degree Days 4 (Base 50)    
Moisture  
Dew Point 29 °F    
Average Humidity 40    
Maximum Humidity 73    
Minimum Humidity 19    
Precipitation  
Precipitation 0.00 in - - ()
Sea Level Pressure  
Sea Level Pressure 30.09 in    
Wind  
Wind Speed 7 mph (NNW)    
Max Wind Speed 15 mph    
Max Gust Speed 20 mph    
Visibility 10 miles    
Events      
Averages and records for this station are not official NWS values.
T = Trace of Precipitation, MM = Missing Value Source: NWS Daily Summary

Daily Weather History Graph

Daily Weather History Graph

Search for Another Location

Airport:

Trip Planner

Search our weather history database for the weather conditions in past years. The results will help you decide how hot, cold, wet, or windy it might be!

Date:

Astronomy

Mar. 05, 2014 Rise Set
Actual Time 6:30 AM MST 6:08 PM MST
Civil Twilight 6:05 AM MST 6:32 PM MST
Nautical Twilight 5:37 AM MST 7:01 PM MST
Astronomical Twilight 5:08 AM MST 7:29 PM MST
Moon 9:15 AM MST (3/5) 11:00 PM MST (3/5)
Length of Visible Light 12h 27m
Length of Day
11h 38m
Waxing Crescent, 24% of the Moon is Illuminated
Mar 5
Waxing Crescent
Mar 8
First Quarter
Mar 16
Full
Mar 23
Last Quarter
Mar 30
New

Hourly Weather History & Observations

Time (MST) Temp. Windchill Dew Point Humidity Pressure Visibility Wind Dir Wind Speed Gust Speed Precip Events Conditions
12:15 AM 47.5 °F - 34.9 °F 62% 29.97 in 10.0 mi NW 8.1 mph - N/A   Clear
12:35 AM 48.2 °F - 34.9 °F 60% 29.97 in 10.0 mi West 10.4 mph - N/A   Clear
12:55 AM 46.4 °F 41.9 °F 34.7 °F 64% 29.99 in 10.0 mi NW 9.2 mph - N/A   Clear
1:15 AM 46.9 °F - 34.0 °F 61% 29.99 in 10.0 mi North 8.1 mph - N/A   Clear
1:35 AM 45.5 °F 41.3 °F 32.9 °F 61% 29.99 in 10.0 mi North 8.1 mph - N/A   Clear
1:55 AM 50.9 °F - 32.0 °F 48% 29.99 in 10.0 mi NNE 4.6 mph - N/A   Scattered Clouds
2:15 AM 47.1 °F - 32.0 °F 56% 29.99 in 10.0 mi NNW 4.6 mph - N/A   Clear
2:35 AM 43.9 °F 40.5 °F 32.2 °F 63% 29.99 in 10.0 mi NNW 5.8 mph - N/A   Clear
2:55 AM 44.4 °F 41.2 °F 32.0 °F 62% 29.99 in 10.0 mi NNW 5.8 mph - N/A   Clear
3:15 AM 44.1 °F 40.1 °F 32.2 °F 63% 29.99 in 10.0 mi North 6.9 mph - N/A   Clear
3:35 AM 46.6 °F - 32.9 °F 59% 30.00 in 10.0 mi NNW 4.6 mph - N/A   Clear
3:55 AM 45.1 °F 41.4 °F 32.5 °F 61% 30.00 in 10.0 mi NE 6.9 mph - N/A   Clear
4:15 AM 47.3 °F - 32.9 °F 57% 30.01 in 10.0 mi NNW 5.8 mph - N/A   Clear
4:35 AM 45.0 °F 41.8 °F 32.4 °F 61% 30.01 in 10.0 mi WNW 5.8 mph - N/A   Clear
4:55 AM 40.6 °F 36.7 °F 32.0 °F 71% 30.02 in 10.0 mi NW 5.8 mph - N/A   Clear
5:15 AM 40.1 °F 36.1 °F 32.0 °F 73% 30.03 in 10.0 mi NW 5.8 mph - N/A   Clear
5:35 AM 42.1 °F 37.1 °F 32.0 °F 67% 30.03 in 10.0 mi NNW 8.1 mph - N/A   Clear
5:55 AM 41.4 °F 36.2 °F 32.0 °F 69% 30.05 in 10.0 mi NW 8.1 mph - N/A   Clear
6:15 AM 40.1 °F 34.1 °F 32.0 °F 73% 30.05 in 10.0 mi NW 9.2 mph - N/A   Clear
6:35 AM 41.9 °F 35.9 °F 32.0 °F 68% 30.06 in 10.0 mi NNW 10.4 mph - N/A   Clear
6:55 AM 45.7 °F 40.6 °F 32.9 °F 61% 30.05 in 10.0 mi NW 10.4 mph - N/A   Clear
7:15 AM 48.2 °F - 32.9 °F 55% 30.07 in 10.0 mi NNW 9.2 mph - N/A   Clear
7:35 AM - - - N/A% 30.07 in - NNW 9.2 mph - N/A   Unknown
7:55 AM 52.0 °F - 32.4 °F 47% 30.08 in 10.0 mi NNW 10.4 mph - N/A   Clear
8:15 AM 53.8 °F - 32.0 °F 44% 30.09 in 10.0 mi NNW 10.4 mph - N/A   Clear
8:35 AM 55.0 °F - 31.1 °F 40% 30.10 in 10.0 mi NNW 12.7 mph - N/A   Clear
8:55 AM 55.6 °F - 30.4 °F 38% 30.11 in 10.0 mi NNW 15.0 mph - N/A   Clear
9:15 AM 56.5 °F - 30.0 °F 36% 30.11 in 10.0 mi North 10.4 mph - N/A   Clear
9:35 AM 57.2 °F - 29.8 °F 35% 30.12 in 10.0 mi North 12.7 mph 19.6 mph N/A   Clear
9:55 AM 57.9 °F - 28.9 °F 33% 30.12 in 10.0 mi North 11.5 mph - N/A   Clear
10:15 AM 59.2 °F - 28.0 °F 31% 30.12 in 10.0 mi North 10.4 mph 19.6 mph N/A   Clear
10:35 AM 59.9 °F - 28.2 °F 30% 30.12 in 10.0 mi NNE 13.8 mph 17.3 mph N/A   Clear
10:55 AM 60.8 °F - 28.4 °F 29% 30.12 in 10.0 mi North 9.2 mph - N/A   Clear
11:15 AM 60.8 °F - 28.0 °F 29% 30.13 in 10.0 mi North 4.6 mph - N/A   Clear
11:35 AM 62.2 °F - 27.9 °F 27% 30.13 in 10.0 mi NNE 9.2 mph - N/A   Clear
11:55 AM 62.2 °F - 27.1 °F 26% 30.12 in 10.0 mi NE 5.8 mph - N/A   Clear
12:15 PM 63.0 °F - 28.2 °F 27% 30.12 in 10.0 mi NNW 8.1 mph - N/A   Clear
12:35 PM 63.7 °F - 26.6 °F 25% 30.11 in 10.0 mi NNE 5.8 mph - N/A   Clear
12:55 PM 64.2 °F - 26.2 °F 24% 30.10 in 10.0 mi Calm Calm - N/A   Clear
1:15 PM 65.1 °F - 27.1 °F 24% 30.09 in 10.0 mi NNW 6.9 mph - N/A   Clear
1:35 PM 64.8 °F - 27.3 °F 24% 30.09 in 10.0 mi North 6.9 mph - N/A   Clear
1:55 PM 66.4 °F - 24.4 °F 20% 30.09 in 10.0 mi NNE 9.2 mph 17.3 mph N/A   Clear
2:15 PM 66.6 °F - 27.5 °F 23% 30.09 in 10.0 mi NW 5.8 mph - N/A   Clear
2:35 PM 66.6 °F - 26.4 °F 22% 30.09 in 10.0 mi WNW 4.6 mph - N/A   Clear
2:55 PM 66.4 °F - 26.4 °F 22% 30.09 in 10.0 mi North 10.4 mph 16.1 mph N/A   Clear
3:15 PM 67.1 °F - 25.5 °F 21% 30.09 in 10.0 mi North 5.8 mph - N/A   Clear
3:35 PM 66.0 °F - 24.4 °F 21% 30.09 in 10.0 mi SSW 3.5 mph - N/A   Clear
3:55 PM 66.6 °F - 23.9 °F 20% 30.09 in 10.0 mi Calm Calm - N/A   Clear
4:15 PM 67.5 °F - 23.7 °F 19% 30.09 in 10.0 mi NW 5.8 mph - N/A   Clear
4:35 PM 66.4 °F - 23.5 °F 20% 30.09 in 10.0 mi Calm Calm - N/A   Clear
4:55 PM 66.7 °F - 22.8 °F 19% 30.09 in 10.0 mi NNW 4.6 mph - N/A   Clear
5:15 PM 66.6 °F - 23.0 °F 19% 30.10 in 10.0 mi Calm Calm - N/A   Clear
5:35 PM 65.5 °F - 23.0 °F 20% 30.10 in 10.0 mi Calm Calm - N/A   Clear
5:55 PM 64.4 °F - 23.9 °F 21% 30.11 in 10.0 mi Calm Calm - N/A   Clear
6:15 PM 63.0 °F - 23.5 °F 22% 30.12 in 10.0 mi Calm Calm - N/A   Clear
6:35 PM 59.4 °F - 25.5 °F 27% 30.12 in 10.0 mi Calm Calm - N/A   Clear
6:55 PM 60.4 °F - 24.3 °F 25% 30.13 in 10.0 mi Calm Calm - N/A   Clear
7:15 PM 57.7 °F - 25.0 °F 28% 30.14 in 10.0 mi Calm Calm - N/A   Clear
7:35 PM 55.8 °F - 25.0 °F 31% 30.14 in 10.0 mi Calm Calm - N/A   Clear
7:55 PM 54.5 °F - 26.2 °F 34% 30.15 in 10.0 mi Calm Calm - N/A   Clear
8:15 PM 53.6 °F - 26.8 °F 36% 30.16 in 10.0 mi South 3.5 mph - N/A   Clear
8:35 PM 55.8 °F - 24.8 °F 30% 30.16 in 10.0 mi SSE 5.8 mph - N/A   Clear
8:55 PM 56.5 °F - 25.7 °F 31% 30.16 in 10.0 mi South 4.6 mph - N/A   Clear
9:15 PM 56.3 °F - 26.6 °F 32% 30.17 in 10.0 mi SSE 6.9 mph - N/A   Clear
9:35 PM 56.3 °F - 26.6 °F 32% 30.17 in 10.0 mi SE 11.5 mph 18.4 mph N/A   Clear
9:55 PM 54.1 °F - 27.3 °F 36% 30.19 in 10.0 mi ESE 10.4 mph - N/A   Clear
10:15 PM 53.8 °F - 27.3 °F 36% 30.19 in 10.0 mi SE 8.1 mph - N/A   Clear
10:35 PM 52.7 °F - 27.9 °F 38% 30.20 in 10.0 mi SE 6.9 mph - N/A   Clear
10:55 PM 51.1 °F - 28.4 °F 42% 30.20 in 10.0 mi SSE 5.8 mph - N/A   Clear
11:15 PM 50.5 °F - 28.8 °F 43% 30.20 in 10.0 mi SSE 8.1 mph - N/A   Clear
11:35 PM 50.0 °F - 29.1 °F 45% 30.20 in 10.0 mi SSE 6.9 mph - N/A   Clear
11:55 PM 49.1 °F - 29.3 °F 46% 30.20 in 10.0 mi SSE 8.1 mph - N/A   Clear